[[{"header":{"parameterUnit":"m.s-1","parameterCategory":1,"la1":30.2991,"la2":30.254,"lo1":-89.0895,"lo2":-89.0444,"dy":0.0017,"dx":0.0017,"nx":28,"ny":28,"refTime":"2024-08-18T09:00:00:Z","depth":0,"parameterNumber":2,"parameterNumberName":"U-component_of_WINDS"},"data":[0,0,0,0,0,0,0,0,0,0,0,0,0,0,0,0,0,0,0,0,0,0,0,0,0,0,0,0,0,0,0,0,0,0,0,0,0,0,0,0,0,0,0,0,0,0,0,0,0,0,0,0,0,0,0,0,0,0,0.2766,0.2765,0,0.2676,0.2675,0.2674,0.2647,0.2647,0.2648,0.2648,0.2554,0.2551,0.2549,0,0,0,0,0,0,0,0,0,0,0,0,0,0.2913,0.291,0.2766,0.2765,0.2764,0.2676,0.2675,0.2674,0.2647,0.2647,0.2648,0.2648,0.2555,0.2552,0.2548,0,0,0,0,0,0,0,0,0,0,0,0,0,0.2839,0.2909,0.2766,0.274,0.2736,0.2677,0.2675,0.2674,0.2646,0.2647,0.2648,0.2648,0.2556,0.2552,0.2548,0.2507,0,0,0.2534,0.2533,0,0,0,0,0,0,0,0,0.2843,0.2833,0.2745,0.2741,0.2738,0.2673,0.2692,0.2618,0.2646,0.2681,0.2648,0.2649,0.2593,0.2586,0.2567,0.2503,0.2499,0.2534,0.2531,0.253,0.2528,0,0,0,0,0,0,0,0.2848,0.2837,0.273,0.2744,0.2739,0.2732,0.2722,0.2678,0.2634,0.2678,0.2675,0.2665,0.2591,0.2572,0.2565,0.2498,0.2534,0.253,0.2528,0.2526,0.2395,0.2394,0,0,0,0,0,0,0.2858,0.2841,0.2733,0.2728,0.2793,0.2729,0.2718,0.2693,0.2635,0.2626,0.2665,0.2664,0.2579,0.257,0.2562,0.251,0.253,0.2526,0.2523,0.2396,0.2395,0.2394,0,0,0,0,0,0,0.2861,0.2849,0.2737,0.2784,0.2769,0.2726,0.2698,0.2691,0.2671,0.2625,0.2617,0.2653,0.2579,0.2568,0.2521,0.2506,0.2524,0.252,0.2397,0.2396,0.2395,0.2407,0,0,0,0,0,0,0.2866,0.285,0.2834,0.2784,0.2767,0.2698,0.2697,0.2689,0.2664,0.2663,0.2612,0.2604,0.2579,0.2528,0.2517,0.2501,0.2516,0.2398,0.2397,0.2395,0.2407,0.2406,0.2405,0,0,0,0,0,0.2871,0.2841,0.2834,0.2821,0.2747,0.2698,0.2688,0.266,0.2663,0.2647,0.2617,0.2605,0.251,0.2523,0.2511,0.2493,0.2399,0.2397,0.2395,0.2408,0.2406,0.2405,0,0,0,0,0,0,0.289,0.2834,0.2825,0.2778,0.2743,0.2693,0.2671,0.2659,0.2622,0.2622,0.2589,0.2578,0.2533,0.2509,0.2524,0.2451,0.2454,0.245,0.2468,0.2466,0.2465,0.2471,0.2513,0,0,0,0,0,0.2889,0.2854,0.2807,0.277,0.2753,0.2716,0.2693,0.2675,0.2637,0.2622,0.2588,0.2551,0.2513,0.2489,0.2451,0.2404,0.2392,0.2386,0.2385,0.2384,0.238,0.2353,0.235,0.2388,0.2388,0.2388,0,0,0.2886,0.2851,0.2831,0.2773,0.2744,0.2708,0.2703,0.2665,0.2638,0.2616,0.2569,0.2544,0.2501,0.2454,0.2432,0.2432,0.2367,0.2381,0.2381,0.2378,0.2351,0.2347,0.2344,0.2387,0.2387,0.2387,0,0,0.2862,0.2833,0.2798,0.2769,0.2725,0.2701,0.2693,0.2644,0.2627,0.258,0.2562,0.253,0.2465,0.2435,0.2411,0.2377,0.2364,0.2365,0.2358,0.2332,0.2329,0.2326,0.2314,0.2309,0.2362,0.2362,0.2362,0,0.2864,0.281,0.2782,0.2746,0.2721,0.2699,0.2664,0.2637,0.2583,0.2566,0.2567,0.2485,0.2454,0.24,0.2392,0.2374,0.2363,0.237,0.2332,0.2329,0.2326,0.2313,0.2309,0.2362,0.2362,0.2362,0.2362,0,0.2814,0.2777,0.2754,0.2703,0.2675,0.264,0.2606,0.2582,0.2567,0.2542,0.2495,0.2457,0.2412,0.2398,0.2382,0.2341,0.2343,0.2339,0.2341,0.2323,0.2311,0.2306,0.2363,0.2362,0.2362,0.2362,0,0,0.2798,0.2733,0.2725,0.2701,0.2651,0.2622,0.2586,0.2541,0.2521,0.2484,0.2452,0.2398,0.2394,0.2367,0.2348,0.2326,0.2301,0.2324,0.2323,0.2321,0.2253,0.2255,0.225,0.2293,0.2292,0.2291,0.2256,0,0.2767,0.2701,0.2676,0.2622,0.2587,0.2567,0.2535,0.2501,0.2477,0.2444,0.2417,0.2379,0.2377,0.2361,0.2338,0.2309,0.2286,0.2311,0.2262,0.2261,0.2272,0.2244,0.2246,0.2215,0.2251,0.225,0.225,0,0.2722,0.2686,0.2629,0.2583,0.2568,0.2539,0.2497,0.2466,0.2427,0.2411,0.2381,0.2364,0.2324,0.2331,0.2276,0.2293,0.2272,0.2254,0.2253,0.2246,0.2253,0.2235,0.2204,0.2199,0.2242,0.2242,0.2243,0,0.2715,0.2652,0.261,0.259,0.2537,0.2517,0.2494,0.2455,0.2431,0.2394,0.2377,0.2336,0.2313,0.2282,0.2254,0.2261,0.2201,0.2205,0.2186,0.2187,0.2174,0.2175,0.2138,0.2162,0.2162,0.2162,0.2162,0,0.2683,0.2649,0.2606,0.258,0.2541,0.2512,0.2474,0.2449,0.2415,0.2384,0.2364,0.2335,0.23,0.2266,0.2244,0.2202,0.2192,0.2177,0.2172,0.2178,0.218,0.2163,0.2164,0.2161,0.2161,0.2161,0.2161,0,0.2668,0.2639,0.2591,0.2544,0.2532,0.2505,0.2465,0.2438,0.2414,0.2374,0.2363,0.2325,0.2284,0.2254,0.2201,0.2186,0.214,0.2135,0.2154,0.215,0.2133,0.2135,0.2083,0.2075,0.2106,0.2105,0.2105,0,0.2649,0.2622,0.2573,0.2551,0.2527,0.2492,0.2466,0.2437,0.2412,0.2366,0.2345,0.2303,0.2268,0.2203,0.217,0.213,0.2123,0.2107,0.2116,0.2124,0.2121,0.2123,0.212,0.2106,0.2106,0.2105,0.2105,0,0.2618,0.2604,0.2569,0.2529,0.2499,0.2466,0.2432,0.2415,0.238,0.2352,0.2311,0.2283,0.223,0.2188,0.2144,0.212,0.2106,0.2103,0.2096,0.2102,0.2114,0.2107,0.2149,0.2104,0.2104,0.2104,0.2104,0.2104,0.2599,0.2574,0.2536,0.2497,0.2469,0.2438,0.2411,0.2384,0.2349,0.2303,0.2288,0.2245,0.2207,0.2147,0.2122,0.2087,0.2087,0.2078,0.2075,0.2073,0.2073,0.2121,0.208,0.2079,0.2079,0.2079,0.2079,0,0.2566,0.2541,0.2505,0.2459,0.2429,0.242,0.2382,0.2357,0.232,0.2285,0.2251,0.2204,0.2163,0.2128,0.2086,0.2065,0.2058,0.2055,0.2056,0.205,0.2076,0.2086,0.2062,0.2062,0.2062,0.2062,0.2062,0.2062,0.2545,0.2502,0.2485,0.2428,0.2403,0.2361,0.234,0.2311,0.2284,0.2231,0.2198,0.2175,0.214,0.2096,0.2059,0.2049,0.2034,0.2033,0.2022,0.2046,0.2048,0.205,0.2059,0.203,0.203,0.1998,0.1998,0.1998]},{"header":{"parameterUnit":"m.s-1","parameterCategory":1,"la1":30.2991,"la2":30.254,"lo1":-89.0895,"lo2":-89.0444,"dy":0.0017,"dx":0.0017,"nx":28,"ny":28,"refTime":"2024-08-18T09:00:00:Z","depth":0,"parameterNumber":3,"parameterNumberName":"V-component_of_WINDS"},"data":[0,0,0,0,0,0,0,0,0,0,0,0,0,0,0,0,0,0,0,0,0,0,0,0,0,0,0,0,0,0,0,0,0,0,0,0,0,0,0,0,0,0,0,0,0,0,0,0,0,0,0,0,0,0,0,0,0,0,-4.1894,-4.1896,0,-4.204,-4.2042,-4.2043,-4.1996,-4.1993,-4.199,-4.1987,-4.2134,-4.2141,-4.2148,0,0,0,0,0,0,0,0,0,0,0,0,0,-4.1572,-4.1578,-4.1894,-4.1896,-4.1898,-4.204,-4.2042,-4.2044,-4.1997,-4.1993,-4.1989,-4.1985,-4.2132,-4.214,-4.2148,0,0,0,0,0,0,0,0,0,0,0,0,0,-4.1714,-4.158,-4.1894,-4.1891,-4.1892,-4.2039,-4.2042,-4.2044,-4.1997,-4.1993,-4.1988,-4.1984,-4.2129,-4.2139,-4.2149,-4.2307,0,0,-4.2181,-4.2185,0,0,0,0,0,0,0,0,-4.1706,-4.1726,-4.189,-4.1892,-4.1893,-4.1995,-4.1982,-4.2132,-4.1999,-4.1958,-4.1987,-4.1981,-4.2092,-4.2105,-4.2142,-4.2314,-4.232,-4.2182,-4.2188,-4.2192,-4.2195,0,0,0,0,0,0,0,-4.1697,-4.172,-4.1952,-4.1892,-4.1894,-4.1882,-4.1897,-4.2011,-4.2049,-4.1961,-4.1958,-4.1976,-4.2092,-4.2133,-4.2145,-4.2322,-4.2181,-4.2191,-4.2197,-4.2201,-4.263,-4.2635,0,0,0,0,0,0,-4.1686,-4.1712,-4.1947,-4.1956,-4.1786,-4.1892,-4.1909,-4.1967,-4.2048,-4.2056,-4.198,-4.1973,-4.2117,-4.2133,-4.215,-4.2341,-4.2192,-4.2202,-4.2208,-4.2625,-4.2631,-4.2637,0,0,0,0,0,0,-4.1679,-4.1707,-4.1941,-4.1833,-4.1862,-4.1902,-4.1968,-4.1972,-4.2013,-4.2062,-4.2068,-4.2014,-4.2114,-4.2136,-4.2268,-4.2345,-4.2207,-4.2216,-4.2619,-4.2627,-4.2634,-4.2722,0,0,0,0,0,0,-4.167,-4.1705,-4.1766,-4.1835,-4.1868,-4.2058,-4.1973,-4.1979,-4.2031,-4.2024,-4.2096,-4.2104,-4.2112,-4.2253,-4.2279,-4.2357,-4.2224,-4.2612,-4.2622,-4.2632,-4.2712,-4.2732,-4.2748,0,0,0,0,0,-4.1659,-4.1785,-4.1769,-4.1798,-4.1945,-4.2062,-4.2081,-4.2089,-4.2038,-4.2099,-4.213,-4.2102,-4.2332,-4.2267,-4.2295,-4.2378,-4.2607,-4.2619,-4.2631,-4.2704,-4.2728,-4.2748,0,0,0,0,0,0,-4.1723,-4.1793,-4.1778,-4.1929,-4.199,-4.2054,-4.2132,-4.2114,-4.219,-4.218,-4.2185,-4.2202,-4.2338,-4.2371,-4.2297,-4.2534,-4.2462,-4.248,-4.2508,-4.2531,-4.2549,-4.2538,-4.2232,0,0,0,0,0,-4.1755,-4.1845,-4.1901,-4.203,-4.2061,-4.2091,-4.2143,-4.2143,-4.2206,-4.2232,-4.2273,-4.2334,-4.242,-4.2477,-4.2559,-4.2716,-4.2731,-4.2786,-4.2804,-4.2819,-4.2835,-4.292,-4.2945,-4.2676,-4.2675,-4.2675,0,0,-4.1822,-4.1871,-4.1928,-4.2044,-4.2091,-4.2184,-4.2113,-4.2214,-4.2283,-4.2247,-4.2375,-4.2407,-4.2476,-4.2622,-4.2687,-4.2653,-4.2912,-4.2834,-4.2845,-4.2853,-4.2935,-4.296,-4.2983,-4.2684,-4.2682,-4.2681,0,0,-4.1991,-4.2037,-4.215,-4.2199,-4.2271,-4.2291,-4.2318,-4.2384,-4.2405,-4.2533,-4.2508,-4.2589,-4.2738,-4.2788,-4.2833,-4.3021,-4.2998,-4.3047,-4.3142,-4.3225,-4.3246,-4.3265,-4.3333,-4.3357,-4.3062,-4.3063,-4.3063,0,-4.2065,-4.2204,-4.221,-4.2314,-4.2365,-4.2337,-4.2451,-4.2497,-4.2593,-4.2629,-4.2589,-4.2775,-4.2819,-4.2976,-4.3022,-4.3059,-4.309,-4.304,-4.3243,-4.3262,-4.3279,-4.3344,-4.3369,-4.3068,-4.3068,-4.3067,-4.3067,0,-4.2291,-4.2388,-4.247,-4.2564,-4.2625,-4.2733,-4.2754,-4.2815,-4.281,-4.2833,-4.2964,-4.3016,-4.3109,-4.3146,-4.3142,-4.3302,-4.3279,-4.3241,-4.3169,-4.3311,-4.3372,-4.3396,-4.3076,-4.3074,-4.3073,-4.3071,0,0,-4.2506,-4.2602,-4.2632,-4.2674,-4.2752,-4.2827,-4.2933,-4.3024,-4.3076,-4.3142,-4.3232,-4.3358,-4.3323,-4.3374,-4.3375,-4.3448,-4.3594,-4.3401,-4.3403,-4.3436,-4.3775,-4.3804,-4.3833,-4.3579,-4.3583,-4.3587,-4.377,0,-4.2683,-4.2871,-4.2879,-4.305,-4.314,-4.3114,-4.3206,-4.3263,-4.3288,-4.3366,-4.3392,-4.3482,-4.3429,-4.346,-4.3531,-4.3562,-4.3663,-4.3548,-4.3662,-4.3666,-4.3647,-4.3864,-4.3895,-4.4065,-4.3793,-4.3797,-4.38,0,-4.2914,-4.2989,-4.3169,-4.3234,-4.3272,-4.3355,-4.3439,-4.3515,-4.3579,-4.3591,-4.3649,-4.3639,-4.3747,-4.367,-4.3819,-4.3741,-4.3788,-4.381,-4.3816,-4.3828,-4.3743,-4.3883,-4.4119,-4.4145,-4.3837,-4.3834,-4.3832,0,-4.3054,-4.3199,-4.3326,-4.3363,-4.3442,-4.3501,-4.3536,-4.3596,-4.365,-4.3723,-4.3758,-4.3842,-4.3888,-4.3953,-4.3966,-4.3909,-4.4116,-4.404,-4.4129,-4.4129,-4.4174,-4.4172,-4.4423,-4.4203,-4.4202,-4.4202,-4.4201,0,-4.3251,-4.3362,-4.339,-4.3468,-4.3592,-4.3599,-4.3722,-4.3752,-4.3806,-4.3889,-4.3871,-4.3949,-4.3961,-4.4042,-4.4052,-4.4174,-4.4195,-4.4208,-4.4209,-4.421,-4.4209,-4.4242,-4.4231,-4.4209,-4.4207,-4.4206,-4.4205,0,-4.3428,-4.3451,-4.3588,-4.3652,-4.367,-4.3759,-4.3813,-4.3887,-4.3909,-4.4014,-4.4039,-4.4073,-4.4168,-4.4187,-4.4298,-4.4305,-4.445,-4.444,-4.4429,-4.4429,-4.4517,-4.4509,-4.4799,-4.4838,-4.4591,-4.4593,-4.4595,0,-4.3553,-4.3639,-4.3711,-4.3766,-4.3805,-4.3893,-4.3948,-4.3958,-4.4017,-4.4096,-4.4161,-4.4253,-4.4328,-4.4479,-4.4514,-4.4599,-4.459,-4.4686,-4.4603,-4.4601,-4.4593,-4.4588,-4.4597,-4.4703,-4.4705,-4.4707,-4.4709,0,-4.3773,-4.378,-4.3861,-4.3946,-4.4013,-4.408,-4.4144,-4.4189,-4.4208,-4.4274,-4.4371,-4.4428,-4.4542,-4.4634,-4.4719,-4.4754,-4.4736,-4.4735,-4.476,-4.4762,-4.4753,-4.476,-4.4474,-4.4728,-4.4726,-4.4725,-4.4724,-4.4723,-4.3928,-4.4003,-4.4066,-4.4157,-4.4206,-4.4266,-4.434,-4.4371,-4.4452,-4.4546,-4.4546,-4.4652,-4.4713,-4.4825,-4.4866,-4.4948,-4.4918,-4.4954,-4.4964,-4.4973,-4.4982,-4.4739,-4.4963,-4.4963,-4.4962,-4.4962,-4.4961,0,-4.4148,-4.4187,-4.427,-4.436,-4.4432,-4.4408,-4.4477,-4.4538,-4.4632,-4.4691,-4.4764,-4.4875,-4.4964,-4.5005,-4.5093,-4.5151,-4.5144,-4.5174,-4.517,-4.5179,-4.5003,-4.4973,-4.5178,-4.5178,-4.5178,-4.5178,-4.5177,-4.5177,-4.427,-4.4396,-4.441,-4.4559,-4.4597,-4.4702,-4.4744,-4.4799,-4.4846,-4.4971,-4.5045,-4.5071,-4.5123,-4.5214,-4.5295,-4.5304,-4.5338,-4.5372,-4.5377,-4.5213,-4.5191,-4.517,-4.5142,-4.5379,-4.5379,-4.5546,-4.5548,-4.5549]}]]